Hourly Data Report for October 10, 2015

All times are specified in Local Standard Time (LST). Add 1 hour to adjust for Daylight Saving Time where and when it is observed.

POND INLET A
NUNAVUT

72°41'22.000" N
77°58'08.000" W
61.60 m
2403206
71095
YIO

Download Data

Hourly Data (October 2015)
Hourly Data Report for October 10, 2015
Temp Definition
°C
Dew Point Temp Definition
°C
Rel Hum Definition
%
Wind Dir Definition
10's deg

Wind Spd Definition
km/h
Visibility Definition
km
Stn Press Definition
kPa
Hmdx Definition


Wind Chill Definition


Weather Definition


TIME
00:00 Legend Double Dagger -9.4 -12.1 81 15 17 16.1 100.36   -16 LegendNANA
01:00 Legend Double Dagger -8.5 -10.9 83 14 11 16.1 100.36   -14 LegendNANA
02:00 Legend Double Dagger -8.9 -10.8 86 16 15 16.1 100.37   -15 LegendNANA
03:00 Legend Double Dagger -9.4 -11.9 82 15 15 16.1 100.39   -16 LegendNANA
04:00 Legend Double Dagger -9.9 -12.4 82 16 22 16.1 100.38   -18 LegendNANA
05:00 Legend Double Dagger -10.1 -12.6 82 14 21 16.1 100.38   -18 LegendNANA
06:00 Legend Double Dagger -10.7 -12.6 86 15 21 16.1 100.37   -19 LegendNANA
07:00 Legend Double Dagger -11.7 -13.8 85 15 21 16.1 100.34   -20 LegendNANA
08:00 Legend Double Dagger -11.7 -13.9 84 15 18 16.1 100.30   -20 LegendNANA
09:00 Legend Double Dagger -13.5 -15.3 86 15 18 16.1 100.27   -22 LegendNANA
10:00 Legend Double Dagger -11.3 -12.9 88 16 15 16.1 100.26   -18 LegendNANA
11:00 Legend Double Dagger -12.1 -14.4 83 16 21 16.1 100.26   -21 Snow
12:00 Legend Double Dagger -11.2 -13.4 84 16 15 16.1 100.26   -18 LegendNANA
13:00 Legend Double Dagger -8.5 -10.6 85 14 11 14.5 100.23   -14 Snow
14:00 Legend Double Dagger -9.0 -10.6 88 18 9 16.1 100.22   -14 LegendNANA
15:00 Legend Double Dagger -9.0 -10.3 90 13 9 16.1 100.24   -14 LegendNANA
16:00 Legend Double Dagger -7.2 -9.2 86 21 5 16.1 100.21   -10 LegendNANA
17:00 Legend Double Dagger -5.9 -8.3 83 LegendMM 4 16.1 100.17   -8 LegendNANA
18:00 Legend Double Dagger -6.3 -8.9 82 15 5 16.1 100.14   -9 LegendNANA
19:00 Legend Double Dagger -4.7 -7.9 79 15 8 16.1 100.12   -8 LegendNANA
20:00 Legend Double Dagger -4.9 -7.4 83 24 13 16.1 100.09   -10 LegendNANA
21:00 Legend Double Dagger -4.5 -7.4 80 21 11 16.1 100.09   -9 Snow
22:00 Legend Double Dagger -5.9 -7.6 88 20 11 16.1 100.07   -11 LegendNANA
23:00 Legend Double Dagger -7.0 -8.7 88 18 13 16.1 100.09   -13 LegendNANA

Notes on Data Quality.

Legend

  • E = Estimated
  • M = Missing
  • NA = Not Available
  • ‡ = Partner data that is not subject to review by the National Climate Archives
Date modified: